Time,TemperatureF,DewpointF,PressureIn,WindDirection,WindDirectionDegrees,WindSpeedMPH,WindSpeedGustMPH,Humidity,HourlyPrecipIn,Conditions,Clouds,dailyrainin,SolarRadiationWatts/m^2,SoftwareType,DateUTC
2013-04-14 00:00:00,47.4,44.3,30.05,NW,321,0.0,0.0,89,0.00,,,0.00,0,Wunderground v.1.15,2013-04-14 04:00:00,
2013-04-14 00:01:00,47.4,44.3,30.05,NW,321,1.0,1.0,89,0.00,,,0.00,0,Wunderground v.1.15,2013-04-14 04:01:00,
2013-04-14 00:02:00,47.4,44.6,30.05,NW,321,0.0,1.0,90,0.00,,,0.00,0,Wunderground v.1.15,2013-04-14 04:02:00,
2013-04-14 00:08:00,48.5,45.4,30.04,NW,321,1.0,1.0,89,0.00,,,0.00,0,Wunderground v.1.15,2013-04-14 04:08:00,
2013-04-14 00:12:00,49.4,45.1,30.04,NW,321,0.0,1.0,85,0.00,,,0.00,0,Wunderground v.1.15,2013-04-14 04:12:00,
2013-04-14 00:18:00,47.6,43.6,30.04,NW,321,0.0,1.0,86,0.00,,,0.00,0,Wunderground v.1.15,2013-04-14 04:18:00,
2013-04-14 00:23:00,46.8,43.7,30.05,NW,321,0.0,0.0,89,0.00,,,0.00,0,Wunderground v.1.15,2013-04-14 04:23:00,
2013-04-14 00:29:00,46.8,43.7,30.05,West,267,0.0,1.0,89,0.00,,,0.00,0,Wunderground v.1.15,2013-04-14 04:29:00,
2013-04-14 00:34:00,46.7,43.6,30.05,North,349,2.0,3.0,89,0.00,,,0.00,0,Wunderground v.1.15,2013-04-14 04:34:00,
2013-04-14 00:39:00,46.8,43.7,30.05,North,349,0.0,3.0,89,0.00,,,0.00,0,Wunderground v.1.15,2013-04-14 04:39:00,
2013-04-14 00:45:00,46.3,43.2,30.05,North,349,0.0,1.0,89,0.00,,,0.00,0,Wunderground v.1.15,2013-04-14 04:45:00,
2013-04-14 00:51:00,46.5,43.7,30.05,North,349,0.0,0.0,90,0.00,,,0.00,0,Wunderground v.1.15,2013-04-14 04:51:00,
2013-04-14 00:57:00,46.0,43.2,30.06,North,349,0.0,0.0,90,0.00,,,0.00,0,Wunderground v.1.15,2013-04-14 04:57:00,
2013-04-14 01:02:00,45.8,43.3,30.06,North,349,0.0,0.0,91,0.00,,,0.00,0,Wunderground v.1.15,2013-04-14 05:02:00,
2013-04-14 01:08:00,46.3,44.1,30.06,North,349,0.0,0.0,92,0.00,,,0.00,0,Wunderground v.1.15,2013-04-14 05:08:00,
2013-04-14 01:14:00,45.7,43.2,30.06,North,349,0.0,0.0,91,0.00,,,0.00,0,Wunderground v.1.15,2013-04-14 05:14:00,
2013-04-14 01:20:00,45.4,43.2,30.06,North,349,0.0,0.0,92,0.00,,,0.00,0,Wunderground v.1.15,2013-04-14 05:20:00,
2013-04-14 01:25:00,44.7,42.2,30.06,North,349,0.0,0.0,91,0.00,,,0.00,0,Wunderground v.1.15,2013-04-14 05:25:00,
2013-04-14 01:31:00,44.5,42.3,30.06,North,349,0.0,0.0,92,0.00,,,0.00,0,Wunderground v.1.15,2013-04-14 05:31:00,
2013-04-14 01:37:00,44.5,42.6,30.06,North,349,0.0,0.0,93,0.00,,,0.00,0,Wunderground v.1.15,2013-04-14 05:37:00,
2013-04-14 01:43:00,44.5,42.6,30.06,North,349,0.0,0.0,93,0.00,,,0.00,0,Wunderground v.1.15,2013-04-14 05:43:00,
2013-04-14 01:49:00,43.7,41.5,30.07,North,349,0.0,0.0,92,0.00,,,0.00,0,Wunderground v.1.15,2013-04-14 05:49:00,
2013-04-14 01:55:00,44.7,43.1,30.06,North,349,0.0,1.0,94,0.00,,,0.00,0,Wunderground v.1.15,2013-04-14 05:55:00,
2013-04-14 02:00:00,44.3,42.1,30.06,North,349,0.0,0.0,92,0.00,,,0.00,0,Wunderground v.1.15,2013-04-14 06:00:00,
2013-04-14 02:05:00,44.5,42.6,30.06,North,349,0.0,0.0,93,0.00,,,0.00,0,Wunderground v.1.15,2013-04-14 06:05:00,
2013-04-14 02:10:00,44.1,41.9,30.06,North,349,0.0,0.0,92,0.00,,,0.00,0,Wunderground v.1.15,2013-04-14 06:10:00,
2013-04-14 02:15:00,43.7,41.8,30.07,North,349,1.0,1.0,93,0.00,,,0.00,0,Wunderground v.1.15,2013-04-14 06:15:00,
2013-04-14 02:20:00,43.8,41.9,30.07,North,349,0.0,0.0,93,0.00,,,0.00,0,Wunderground v.1.15,2013-04-14 06:20:00,
2013-04-14 02:25:00,43.9,42.3,30.07,North,349,0.0,0.0,94,0.00,,,0.00,0,Wunderground v.1.15,2013-04-14 06:25:00,
2013-04-14 02:30:00,43.9,42.3,30.07,North,349,0.0,0.0,94,0.00,,,0.00,0,Wunderground v.1.15,2013-04-14 06:30:00,
2013-04-14 02:35:00,43.5,41.6,30.06,North,349,0.0,0.0,93,0.00,,,0.00,0,Wunderground v.1.15,2013-04-14 06:35:00,
2013-04-14 02:40:00,43.0,41.1,30.07,North,349,0.0,0.0,93,0.00,,,0.00,0,Wunderground v.1.15,2013-04-14 06:40:00,
2013-04-14 02:45:00,42.4,40.5,30.07,North,349,0.0,1.0,93,0.00,,,0.00,0,Wunderground v.1.15,2013-04-14 06:45:00,
2013-04-14 02:50:00,42.7,41.1,30.06,North,349,0.0,0.0,94,0.00,,,0.00,0,Wunderground v.1.15,2013-04-14 06:50:00,
2013-04-14 02:55:00,43.0,41.4,30.06,North,349,0.0,0.0,94,0.00,,,0.00,0,Wunderground v.1.15,2013-04-14 06:55:00,
2013-04-14 03:00:00,42.8,41.2,30.07,North,349,0.0,0.0,94,0.00,,,0.00,0,Wunderground v.1.15,2013-04-14 07:00:00,
2013-04-14 03:05:00,42.4,40.5,30.06,North,349,0.0,0.0,93,0.00,,,0.00,0,Wunderground v.1.15,2013-04-14 07:05:00,
2013-04-14 03:10:00,42.2,40.6,30.07,North,349,0.0,0.0,94,0.00,,,0.00,0,Wunderground v.1.15,2013-04-14 07:10:00,
2013-04-14 03:16:00,42.2,40.6,30.07,North,349,0.0,0.0,94,0.00,,,0.00,0,Wunderground v.1.15,2013-04-14 07:16:00,
2013-04-14 03:21:00,42.0,40.4,30.07,North,349,0.0,0.0,94,0.00,,,0.00,0,Wunderground v.1.15,2013-04-14 07:21:00,
2013-04-14 03:26:00,41.6,40.0,30.07,North,349,0.0,0.0,94,0.00,,,0.00,0,Wunderground v.1.15,2013-04-14 07:26:00,
2013-04-14 03:31:00,41.7,40.1,30.07,North,349,0.0,0.0,94,0.00,,,0.00,0,Wunderground v.1.15,2013-04-14 07:31:00,
2013-04-14 03:36:00,41.8,40.5,30.07,North,349,0.0,0.0,95,0.00,,,0.00,0,Wunderground v.1.15,2013-04-14 07:36:00,
2013-04-14 03:41:00,41.8,40.2,30.07,North,349,0.0,0.0,94,0.00,,,0.00,0,Wunderground v.1.15,2013-04-14 07:41:00,
2013-04-14 03:46:00,41.9,40.6,30.07,North,349,0.0,0.0,95,0.00,,,0.00,0,Wunderground v.1.15,2013-04-14 07:46:00,
2013-04-14 03:51:00,41.9,40.6,30.08,North,349,0.0,0.0,95,0.00,,,0.00,0,Wunderground v.1.15,2013-04-14 07:51:00,
2013-04-14 03:56:00,41.7,40.4,30.08,North,349,0.0,0.0,95,0.00,,,0.00,0,Wunderground v.1.15,2013-04-14 07:56:00,
2013-04-14 04:01:00,41.8,40.5,30.08,North,349,0.0,0.0,95,0.00,,,0.00,0,Wunderground v.1.15,2013-04-14 08:01:00,
2013-04-14 04:06:00,41.3,40.0,30.08,North,349,0.0,0.0,95,0.00,,,0.00,0,Wunderground v.1.15,2013-04-14 08:06:00,
2013-04-14 04:11:00,41.1,39.5,30.08,North,349,0.0,0.0,94,0.00,,,0.00,0,Wunderground v.1.15,2013-04-14 08:11:00,
2013-04-14 04:16:00,41.1,39.8,30.08,North,349,0.0,0.0,95,0.00,,,0.00,0,Wunderground v.1.15,2013-04-14 08:16:00,
2013-04-14 04:21:00,40.8,39.5,30.08,North,349,0.0,0.0,95,0.00,,,0.00,0,Wunderground v.1.15,2013-04-14 08:21:00,
2013-04-14 04:27:00,40.7,39.4,30.08,North,349,0.0,0.0,95,0.00,,,0.00,0,Wunderground v.1.15,2013-04-14 08:27:00,
2013-04-14 04:32:00,40.7,39.4,30.09,North,349,0.0,0.0,95,0.00,,,0.00,0,Wunderground v.1.15,2013-04-14 08:32:00,
2013-04-14 04:37:00,40.5,39.2,30.09,North,349,0.0,0.0,95,0.00,,,0.00,0,Wunderground v.1.15,2013-04-14 08:37:00,
2013-04-14 04:42:00,40.1,38.8,30.09,North,349,0.0,0.0,95,0.00,,,0.00,0,Wunderground v.1.15,2013-04-14 08:42:00,
2013-04-14 04:47:00,39.8,38.2,30.09,North,349,0.0,1.0,94,0.00,,,0.00,0,Wunderground v.1.15,2013-04-14 08:47:00,
2013-04-14 04:52:00,39.9,38.6,30.09,North,349,0.0,0.0,95,0.00,,,0.00,0,Wunderground v.1.15,2013-04-14 08:52:00,
2013-04-14 04:57:00,40.4,39.1,30.09,North,349,0.0,0.0,95,0.00,,,0.00,0,Wunderground v.1.15,2013-04-14 08:57:00,
2013-04-14 05:02:00,40.3,39.0,30.09,North,349,0.0,1.0,95,0.00,,,0.00,0,Wunderground v.1.15,2013-04-14 09:02:00,
2013-04-14 05:07:00,39.8,38.2,30.09,NNW,346,1.0,2.0,94,0.00,,,0.00,0,Wunderground v.1.15,2013-04-14 09:07:00,
2013-04-14 05:12:00,40.4,39.1,30.09,NNW,346,0.0,1.0,95,0.00,,,0.00,0,Wunderground v.1.15,2013-04-14 09:12:00,
2013-04-14 05:17:00,40.5,39.2,30.09,NNW,346,0.0,1.0,95,0.00,,,0.00,0,Wunderground v.1.15,2013-04-14 09:17:00,
2013-04-14 05:22:00,40.2,38.9,30.09,NNW,346,0.0,0.0,95,0.00,,,0.00,0,Wunderground v.1.15,2013-04-14 09:22:00,
2013-04-14 05:27:00,40.0,38.7,30.09,NNW,346,0.0,0.0,95,0.00,,,0.00,0,Wunderground v.1.15,2013-04-14 09:27:00,
2013-04-14 05:32:00,39.8,38.5,30.10,NNW,346,0.0,0.0,95,0.00,,,0.00,0,Wunderground v.1.15,2013-04-14 09:32:00,
2013-04-14 05:37:00,39.6,38.3,30.10,NNW,346,0.0,1.0,95,0.00,,,0.00,0,Wunderground v.1.15,2013-04-14 09:37:00,
2013-04-14 05:42:00,39.7,38.4,30.10,NNW,346,1.0,1.0,95,0.00,,,0.00,0,Wunderground v.1.15,2013-04-14 09:42:00,
2013-04-14 05:47:00,40.3,39.0,30.10,NNW,346,1.0,1.0,95,0.00,,,0.00,0,Wunderground v.1.15,2013-04-14 09:47:00,
2013-04-14 05:52:00,39.9,38.6,30.10,NNW,346,2.0,2.0,95,0.00,,,0.00,0,Wunderground v.1.15,2013-04-14 09:52:00,
2013-04-14 05:57:00,40.0,38.7,30.10,NNW,346,0.0,2.0,95,0.00,,,0.00,0,Wunderground v.1.15,2013-04-14 09:57:00,
2013-04-14 06:02:00,40.3,39.0,30.10,NNW,346,0.0,0.0,95,0.00,,,0.00,0,Wunderground v.1.15,2013-04-14 10:02:00,
2013-04-14 06:07:00,40.1,38.8,30.10,NNW,346,0.0,1.0,95,0.00,,,0.00,0,Wunderground v.1.15,2013-04-14 10:07:00,
2013-04-14 06:12:00,40.5,39.2,30.10,NNW,346,0.0,1.0,95,0.00,,,0.00,0,Wunderground v.1.15,2013-04-14 10:12:00,
2013-04-14 06:17:00,40.1,38.5,30.11,NNW,346,0.0,1.0,94,0.00,,,0.00,0,Wunderground v.1.15,2013-04-14 10:17:00,
2013-04-14 06:23:00,40.0,38.4,30.11,NNW,346,0.0,0.0,94,0.00,,,0.00,0,Wunderground v.1.15,2013-04-14 10:23:00,
2013-04-14 06:28:00,39.8,38.2,30.11,NNW,346,0.0,1.0,94,0.00,,,0.00,0,Wunderground v.1.15,2013-04-14 10:28:00,
2013-04-14 06:33:00,40.1,38.8,30.11,NNW,346,0.0,0.0,95,0.00,,,0.00,0,Wunderground v.1.15,2013-04-14 10:33:00,
2013-04-14 06:38:00,40.1,38.8,30.12,NNW,346,0.0,0.0,95,0.00,,,0.00,5,Wunderground v.1.15,2013-04-14 10:38:00,
2013-04-14 06:43:00,39.5,37.9,30.12,NNW,346,0.0,0.0,94,0.00,,,0.00,7,Wunderground v.1.15,2013-04-14 10:43:00,
2013-04-14 06:48:00,39.5,38.2,30.12,NNW,346,0.0,0.0,95,0.00,,,0.00,12,Wunderground v.1.15,2013-04-14 10:48:00,
2013-04-14 06:53:00,39.7,38.4,30.12,NNW,346,0.0,0.0,95,0.00,,,0.00,16,Wunderground v.1.15,2013-04-14 10:53:00,
2013-04-14 06:58:00,39.9,38.6,30.13,NNW,346,0.0,0.0,95,0.00,,,0.00,19,Wunderground v.1.15,2013-04-14 10:58:00,
2013-04-14 07:03:00,40.3,39.0,30.13,NNW,346,0.0,0.0,95,0.00,,,0.00,30,Wunderground v.1.15,2013-04-14 11:03:00,
2013-04-14 07:08:00,40.2,38.9,30.13,NNW,346,0.0,1.0,95,0.00,,,0.00,74,Wunderground v.1.15,2013-04-14 11:08:00,
2013-04-14 07:13:00,40.2,38.9,30.13,NNW,346,0.0,0.0,95,0.00,,,0.00,93,Wunderground v.1.15,2013-04-14 11:13:00,
2013-04-14 07:18:00,40.8,39.5,30.14,NNW,346,0.0,1.0,95,0.00,,,0.00,114,Wunderground v.1.15,2013-04-14 11:18:00,
2013-04-14 07:23:00,41.5,40.2,30.14,NNW,346,0.0,0.0,95,0.00,,,0.00,134,Wunderground v.1.15,2013-04-14 11:23:00,
2013-04-14 07:29:00,41.9,40.6,30.14,NNW,346,0.0,0.0,95,0.00,,,0.00,153,Wunderground v.1.15,2013-04-14 11:29:00,
2013-04-14 07:34:00,42.5,41.2,30.13,NNW,346,0.0,0.0,95,0.00,,,0.00,174,Wunderground v.1.15,2013-04-14 11:34:00,
2013-04-14 07:39:00,43.0,41.7,30.14,NNW,346,0.0,0.0,95,0.00,,,0.00,192,Wunderground v.1.15,2013-04-14 11:39:00,
2013-04-14 07:44:00,43.7,42.4,30.14,NNW,346,0.0,0.0,95,0.00,,,0.00,211,Wunderground v.1.15,2013-04-14 11:44:00,
2013-04-14 07:49:00,44.7,43.1,30.14,NNW,346,0.0,1.0,94,0.00,,,0.00,229,Wunderground v.1.15,2013-04-14 11:49:00,
2013-04-14 07:54:00,45.5,43.6,30.14,NNW,346,0.0,0.0,93,0.00,,,0.00,251,Wunderground v.1.15,2013-04-14 11:54:00,
2013-04-14 07:59:00,47.2,45.3,30.14,NNW,346,0.0,0.0,93,0.00,,,0.00,269,Wunderground v.1.15,2013-04-14 11:59:00,
2013-04-14 08:04:00,48.4,45.3,30.15,NNW,346,0.0,1.0,89,0.00,,,0.00,294,Wunderground v.1.15,2013-04-14 12:04:00,
2013-04-14 08:09:00,48.7,45.0,30.15,NNW,346,0.0,1.0,87,0.00,,,0.00,292,Wunderground v.1.15,2013-04-14 12:09:00,
2013-04-14 08:14:00,48.9,45.2,30.15,NNW,346,0.0,1.0,87,0.00,,,0.00,299,Wunderground v.1.15,2013-04-14 12:14:00,
2013-04-14 08:19:00,49.7,45.7,30.16,NNW,346,0.0,2.0,86,0.00,,,0.00,262,Wunderground v.1.15,2013-04-14 12:19:00,
2013-04-14 08:24:00,50.7,44.8,30.16,NNW,346,0.0,1.0,80,0.00,,,0.00,338,Wunderground v.1.15,2013-04-14 12:24:00,
2013-04-14 08:29:00,52.4,46.4,30.16,NNW,346,0.0,1.0,80,0.00,,,0.00,318,Wunderground v.1.15,2013-04-14 12:29:00,
2013-04-14 08:34:00,53.6,46.2,30.16,NNW,346,0.0,1.0,76,0.00,,,0.00,396,Wunderground v.1.15,2013-04-14 12:34:00,
2013-04-14 08:39:00,55.1,46.2,30.16,NW,305,1.0,2.0,72,0.00,,,0.00,420,Wunderground v.1.15,2013-04-14 12:39:00,
2013-04-14 08:44:00,56.3,46.6,30.16,NW,304,0.0,2.0,70,0.00,,,0.00,431,Wunderground v.1.15,2013-04-14 12:44:00,
2013-04-14 08:49:00,56.4,44.8,30.16,NW,304,0.0,2.0,65,0.00,,,0.00,450,Wunderground v.1.15,2013-04-14 12:49:00,
2013-04-14 08:54:00,56.9,44.0,30.16,WNW,302,0.0,2.0,62,0.00,,,0.00,462,Wunderground v.1.15,2013-04-14 12:54:00,
2013-04-14 08:59:00,57.7,44.3,30.16,WNW,302,0.0,2.0,61,0.00,,,0.00,482,Wunderground v.1.15,2013-04-14 12:59:00,
2013-04-14 09:04:00,58.2,43.9,30.16,North,5,1.0,2.0,59,0.00,,,0.00,497,Wunderground v.1.15,2013-04-14 13:04:00,
2013-04-14 09:09:00,58.7,44.0,30.15,North,5,0.0,2.0,58,0.00,,,0.00,515,Wunderground v.1.15,2013-04-14 13:09:00,
2013-04-14 09:14:00,59.7,44.0,30.16,North,5,1.0,2.0,56,0.00,,,0.00,533,Wunderground v.1.15,2013-04-14 13:14:00,
2013-04-14 09:19:00,60.1,42.9,30.15,North,5,1.0,2.0,53,0.00,,,0.00,550,Wunderground v.1.15,2013-04-14 13:19:00,
2013-04-14 09:24:00,61.2,46.3,30.15,North,10,1.0,3.0,58,0.00,,,0.00,564,Wunderground v.1.15,2013-04-14 13:24:00,
2013-04-14 09:29:00,61.6,43.8,30.15,NNE,26,2.0,3.0,52,0.00,,,0.00,582,Wunderground v.1.15,2013-04-14 13:29:00,
2013-04-14 09:34:00,62.2,44.9,30.15,NNE,27,3.0,4.0,53,0.00,,,0.00,596,Wunderground v.1.15,2013-04-14 13:34:00,
2013-04-14 09:39:00,63.4,46.0,30.15,North,11,0.0,5.0,53,0.00,,,0.00,608,Wunderground v.1.15,2013-04-14 13:39:00,
2013-04-14 09:44:00,64.6,45.0,30.16,NW,307,0.0,2.0,49,0.00,,,0.00,619,Wunderground v.1.15,2013-04-14 13:44:00,
2013-04-14 09:49:00,65.4,44.6,30.16,SW,217,4.0,5.0,47,0.00,,,0.00,65,Wunderground v.1.15,2013-04-14 13:49:00,
2013-04-14 09:54:00,65.9,45.6,30.16,WSW,251,1.0,5.0,48,0.00,,,0.00,65,Wunderground v.1.15,2013-04-14 13:54:00,
2013-04-14 09:59:00,66.4,43.8,30.16,WNW,292,1.0,5.0,44,0.00,,,0.00,67,Wunderground v.1.15,2013-04-14 13:59:00,
2013-04-14 10:04:00,67.0,42.5,30.16,NNE,26,0.0,4.0,41,0.00,,,0.00,679,Wunderground v.1.15,2013-04-14 14:04:00,
2013-04-14 10:09:00,67.6,41.7,30.16,WSW,242,2.0,5.0,39,0.00,,,0.00,693,Wunderground v.1.15,2013-04-14 14:09:00,
2013-04-14 10:14:00,68.3,43.0,30.16,WSW,242,2.0,4.0,40,0.00,,,0.00,703,Wunderground v.1.15,2013-04-14 14:14:00,
2013-04-14 10:19:00,68.6,42.0,30.16,NNE,28,5.0,7.0,38,0.00,,,0.00,715,Wunderground v.1.15,2013-04-14 14:19:00,
2013-04-14 10:24:00,68.6,42.0,30.16,North,5,7.0,7.0,38,0.00,,,0.00,731,Wunderground v.1.15,2013-04-14 14:24:00,
2013-04-14 10:29:00,69.1,44.4,30.17,WNW,292,2.0,7.0,41,0.00,,,0.00,745,Wunderground v.1.15,2013-04-14 14:29:00,
2013-04-14 10:34:00,69.2,41.1,30.17,NNW,342,1.0,4.0,36,0.00,,,0.00,754,Wunderground v.1.15,2013-04-14 14:34:00,
2013-04-14 10:39:00,69.0,40.9,30.17,NNW,343,2.0,5.0,36,0.00,,,0.00,766,Wunderground v.1.15,2013-04-14 14:39:00,
2013-04-14 10:44:00,69.6,41.5,30.16,SSW,209,5.0,6.0,36,0.00,,,0.00,780,Wunderground v.1.15,2013-04-14 14:44:00,
2013-04-14 10:49:00,69.7,40.8,30.16,NNW,343,4.0,6.0,35,0.00,,,0.00,789,Wunderground v.1.15,2013-04-14 14:49:00,
2013-04-14 10:54:00,70.1,41.2,30.16,NW,322,2.0,5.0,35,0.00,,,0.00,796,Wunderground v.1.15,2013-04-14 14:54:00,
2013-04-14 10:59:00,69.9,41.0,30.16,NNW,340,3.0,6.0,35,0.00,,,0.00,807,Wunderground v.1.15,2013-04-14 14:59:00,
2013-04-14 11:04:00,71.1,43.5,30.16,SW,236,0.0,4.0,37,0.00,,,0.00,814,Wunderground v.1.15,2013-04-14 15:04:00,
2013-04-14 11:09:00,71.3,39.9,30.16,North,5,0.0,5.0,32,0.00,,,0.00,828,Wunderground v.1.15,2013-04-14 15:09:00,
2013-04-14 11:14:00,72.1,37.2,30.16,SSW,194,5.0,7.0,28,0.00,,,0.00,837,Wunderground v.1.15,2013-04-14 15:14:00,
2013-04-14 11:19:00,72.7,36.8,30.16,NW,304,2.0,7.0,27,0.00,,,0.00,846,Wunderground v.1.15,2013-04-14 15:19:00,
2013-04-14 11:25:00,72.2,36.3,30.16,North,5,1.0,4.0,27,0.00,,,0.00,854,Wunderground v.1.15,2013-04-14 15:25:00,
2013-04-14 11:30:00,72.6,40.2,30.16,NW,320,1.0,1.0,31,0.00,,,0.00,861,Wunderground v.1.15,2013-04-14 15:30:00,
2013-04-14 11:35:00,72.9,37.9,30.16,West,264,2.0,6.0,28,0.00,,,0.00,870,Wunderground v.1.15,2013-04-14 15:35:00,
2013-04-14 11:40:00,73.1,38.9,30.16,SW,221,0.0,2.0,29,0.00,,,0.00,865,Wunderground v.1.15,2013-04-14 15:40:00,
2013-04-14 11:45:00,74.2,39.0,30.16,SW,214,4.0,5.0,28,0.00,,,0.00,861,Wunderground v.1.15,2013-04-14 15:45:00,
2013-04-14 11:50:00,73.7,37.6,30.15,South,191,2.0,3.0,27,0.00,,,0.00,884,Wunderground v.1.15,2013-04-14 15:50:00,
2013-04-14 11:55:00,73.5,38.4,30.15,SSW,194,3.0,7.0,28,0.00,,,0.00,893,Wunderground v.1.15,2013-04-14 15:55:00,
2013-04-14 12:00:00,74.2,41.6,30.15,SSW,211,0.0,4.0,31,0.00,,,0.00,896,Wunderground v.1.15,2013-04-14 16:00:00,
2013-04-14 12:05:00,74.9,41.4,30.15,South,183,3.0,5.0,30,0.00,,,0.00,900,Wunderground v.1.15,2013-04-14 16:05:00,
2013-04-14 12:10:00,74.4,39.2,30.15,SSW,192,4.0,4.0,28,0.00,,,0.00,905,Wunderground v.1.15,2013-04-14 16:10:00,
2013-04-14 12:15:00,74.7,37.5,30.14,NE,35,3.0,4.0,26,0.00,,,0.00,911,Wunderground v.1.15,2013-04-14 16:15:00,
2013-04-14 12:20:00,75.4,39.1,30.14,North,360,3.0,3.0,27,0.00,,,0.00,912,Wunderground v.1.15,2013-04-14 16:20:00,
2013-04-14 12:25:00,75.1,37.9,30.14,NNW,328,0.0,4.0,26,0.00,,,0.00,918,Wunderground v.1.15,2013-04-14 16:25:00,
2013-04-14 12:30:00,75.6,39.2,30.14,SW,215,6.0,6.0,27,0.00,,,0.00,921,Wunderground v.1.15,2013-04-14 16:30:00,
2013-04-14 12:35:00,75.7,42.1,30.14,WSW,237,3.0,7.0,30,0.00,,,0.00,925,Wunderground v.1.15,2013-04-14 16:35:00,
2013-04-14 12:40:00,75.6,39.2,30.13,South,185,3.0,5.0,27,0.00,,,0.00,921,Wunderground v.1.15,2013-04-14 16:40:00,
2013-04-14 12:45:00,75.5,39.2,30.13,SSE,160,3.0,6.0,27,0.00,,,0.00,916,Wunderground v.1.15,2013-04-14 16:45:00,
2013-04-14 12:50:00,76.0,40.5,30.13,SW,215,0.0,3.0,28,0.00,,,0.00,923,Wunderground v.1.15,2013-04-14 16:50:00,
2013-04-14 12:55:00,75.4,39.1,30.13,North,5,1.0,3.0,27,0.00,,,0.00,921,Wunderground v.1.15,2013-04-14 16:55:00,
2013-04-14 13:00:00,75.8,41.3,30.13,SE,140,1.0,2.0,29,0.00,,,0.00,919,Wunderground v.1.15,2013-04-14 17:00:00,
2013-04-14 13:05:00,76.1,38.7,30.13,SE,132,3.0,6.0,26,0.00,,,0.00,909,Wunderground v.1.15,2013-04-14 17:05:00,
2013-04-14 13:10:00,75.9,38.5,30.13,ESE,115,3.0,3.0,26,0.00,,,0.00,930,Wunderground v.1.15,2013-04-14 17:10:00,
2013-04-14 13:15:00,75.9,40.4,30.13,SW,225,3.0,8.0,28,0.00,,,0.00,896,Wunderground v.1.15,2013-04-14 17:15:00,
2013-04-14 13:20:00,76.7,41.1,30.13,SSW,195,2.0,4.0,28,0.00,,,0.00,874,Wunderground v.1.15,2013-04-14 17:20:00,
2013-04-14 13:25:00,77.3,44.3,30.13,SW,219,3.0,6.0,31,0.00,,,0.00,735,Wunderground v.1.15,2013-04-14 17:25:00,
2013-04-14 13:30:00,76.9,41.3,30.14,South,173,5.0,5.0,28,0.00,,,0.00,896,Wunderground v.1.15,2013-04-14 17:30:00,
2013-04-14 13:35:00,76.4,38.0,30.13,NE,50,5.0,7.0,25,0.00,,,0.00,888,Wunderground v.1.15,2013-04-14 17:35:00,
2013-04-14 13:40:00,76.6,41.0,30.13,WSW,248,4.0,5.0,28,0.00,,,0.00,858,Wunderground v.1.15,2013-04-14 17:40:00,
2013-04-14 13:45:00,77.2,39.6,30.13,SSW,213,5.0,7.0,26,0.00,,,0.00,867,Wunderground v.1.15,2013-04-14 17:45:00,
2013-04-14 13:50:00,76.7,39.2,30.13,SSE,159,2.0,6.0,26,0.00,,,0.00,854,Wunderground v.1.15,2013-04-14 17:50:00,
2013-04-14 13:55:00,76.9,40.4,30.13,SSE,168,2.0,6.0,27,0.00,,,0.00,833,Wunderground v.1.15,2013-04-14 17:55:00,
2013-04-14 14:00:00,77.9,40.2,30.13,South,173,3.0,6.0,26,0.00,,,0.00,809,Wunderground v.1.15,2013-04-14 18:00:00,
2013-04-14 14:06:00,76.9,38.4,30.13,SE,136,3.0,6.0,25,0.00,,,0.00,791,Wunderground v.1.15,2013-04-14 18:06:00,
2013-04-14 14:11:00,77.1,38.6,30.13,SE,145,0.0,5.0,25,0.00,,,0.00,795,Wunderground v.1.15,2013-04-14 18:11:00,
2013-04-14 14:17:00,77.2,38.6,30.13,SSW,204,4.0,8.0,25,0.00,,,0.00,826,Wunderground v.1.15,2013-04-14 18:17:00,
2013-04-14 14:22:00,77.7,39.1,30.12,SSE,147,4.0,6.0,25,0.00,,,0.00,828,Wunderground v.1.15,2013-04-14 18:22:00,
2013-04-14 14:27:00,78.6,41.8,30.12,SSW,213,5.0,9.0,27,0.00,,,0.00,821,Wunderground v.1.15,2013-04-14 18:27:00,
2013-04-14 14:32:00,78.6,41.8,30.12,WSW,238,6.0,8.0,27,0.00,,,0.00,821,Wunderground v.1.15,2013-04-14 18:32:00,
2013-04-14 14:37:00,78.7,40.9,30.12,SSE,150,2.0,9.0,26,0.00,,,0.00,819,Wunderground v.1.15,2013-04-14 18:37:00,
2013-04-14 14:42:00,78.4,40.7,30.12,SE,142,4.0,7.0,26,0.00,,,0.00,782,Wunderground v.1.15,2013-04-14 18:42:00,
2013-04-14 14:47:00,78.8,41.0,30.11,West,273,3.0,7.0,26,0.00,,,0.00,819,Wunderground v.1.15,2013-04-14 18:47:00,
2013-04-14 14:52:00,78.5,40.7,30.11,South,184,9.0,9.0,26,0.00,,,0.00,819,Wunderground v.1.15,2013-04-14 18:52:00,
2013-04-14 14:57:00,79.3,41.4,30.11,SSE,152,4.0,11.0,26,0.00,,,0.00,800,Wunderground v.1.15,2013-04-14 18:57:00,
2013-04-14 15:02:00,78.2,41.5,30.11,South,190,4.0,7.0,27,0.00,,,0.00,791,Wunderground v.1.15,2013-04-14 19:02:00,
2013-04-14 15:07:00,78.0,40.3,30.11,SE,138,5.0,7.0,26,0.00,,,0.00,773,Wunderground v.1.15,2013-04-14 19:07:00,
2013-04-14 15:12:00,79.3,40.4,30.10,South,169,3.0,7.0,25,0.00,,,0.00,751,Wunderground v.1.15,2013-04-14 19:12:00,
2013-04-14 15:17:00,78.5,40.7,30.10,WSW,243,2.0,7.0,26,0.00,,,0.00,721,Wunderground v.1.15,2013-04-14 19:17:00,
2013-04-14 15:22:00,79.0,42.2,30.10,SW,225,7.0,7.0,27,0.00,,,0.00,714,Wunderground v.1.15,2013-04-14 19:22:00,
2013-04-14 15:27:00,78.8,41.0,30.09,South,172,1.0,9.0,26,0.00,,,0.00,694,Wunderground v.1.15,2013-04-14 19:27:00,
2013-04-14 15:32:00,79.4,42.5,30.09,WSW,254,1.0,4.0,27,0.00,,,0.00,642,Wunderground v.1.15,2013-04-14 19:32:00,
2013-04-14 15:37:00,79.2,39.3,30.09,South,187,1.0,4.0,24,0.00,,,0.00,686,Wunderground v.1.15,2013-04-14 19:37:00,
2013-04-14 15:42:00,78.9,41.1,30.09,SSW,202,1.0,6.0,26,0.00,,,0.00,673,Wunderground v.1.15,2013-04-14 19:42:00,
2013-04-14 15:47:00,79.4,41.5,30.08,South,180,1.0,8.0,26,0.00,,,0.00,666,Wunderground v.1.15,2013-04-14 19:47:00,
2013-04-14 15:52:00,79.4,41.5,30.08,SW,234,0.0,5.0,26,0.00,,,0.00,622,Wunderground v.1.15,2013-04-14 19:52:00,
2013-04-14 15:57:00,79.7,41.8,30.08,WSW,246,4.0,7.0,26,0.00,,,0.00,636,Wunderground v.1.15,2013-04-14 19:57:00,
2013-04-14 16:02:00,79.6,41.7,30.08,South,184,3.0,5.0,26,0.00,,,0.00,608,Wunderground v.1.15,2013-04-14 20:02:00,
2013-04-14 16:07:00,79.5,41.6,30.08,SSE,149,6.0,8.0,26,0.00,,,0.00,608,Wunderground v.1.15,2013-04-14 20:07:00,
2013-04-14 16:12:00,80.5,41.4,30.08,South,186,6.0,7.0,25,0.00,,,0.00,577,Wunderground v.1.15,2013-04-14 20:12:00,
2013-04-14 16:17:00,79.7,41.8,30.08,SW,233,3.0,11.0,26,0.00,,,0.00,547,Wunderground v.1.15,2013-04-14 20:17:00,
2013-04-14 16:22:00,79.2,39.3,30.08,WSW,254,0.0,4.0,24,0.00,,,0.00,533,Wunderground v.1.15,2013-04-14 20:22:00,
2013-04-14 16:27:00,80.2,44.1,30.08,South,173,3.0,4.0,28,0.00,,,0.00,510,Wunderground v.1.15,2013-04-14 20:27:00,
2013-04-14 16:32:00,80.5,43.4,30.08,WSW,252,2.0,5.0,27,0.00,,,0.00,473,Wunderground v.1.15,2013-04-14 20:32:00,
2013-04-14 16:37:00,79.8,41.9,30.08,SSW,194,5.0,6.0,26,0.00,,,0.00,464,Wunderground v.1.15,2013-04-14 20:37:00,
2013-04-14 16:42:00,79.4,40.5,30.08,SE,126,3.0,4.0,25,0.00,,,0.00,461,Wunderground v.1.15,2013-04-14 20:42:00,
2013-04-14 16:47:00,79.2,40.3,30.08,SSE,165,2.0,4.0,25,0.00,,,0.00,422,Wunderground v.1.15,2013-04-14 20:47:00,
2013-04-14 16:52:00,79.1,40.2,30.08,SSE,156,3.0,4.0,25,0.00,,,0.00,406,Wunderground v.1.15,2013-04-14 20:52:00,
2013-04-14 16:57:00,79.4,41.5,30.08,SSW,209,4.0,10.0,26,0.00,,,0.00,378,Wunderground v.1.15,2013-04-14 20:57:00,
2013-04-14 17:02:00,79.4,40.5,30.08,SE,126,2.0,7.0,25,0.00,,,0.00,329,Wunderground v.1.15,2013-04-14 21:02:00,
2013-04-14 17:07:00,78.9,39.0,30.08,SE,126,4.0,7.0,24,0.00,,,0.00,339,Wunderground v.1.15,2013-04-14 21:07:00,
2013-04-14 17:12:00,78.6,39.8,30.08,SE,136,2.0,4.0,25,0.00,,,0.00,334,Wunderground v.1.15,2013-04-14 21:12:00,
2013-04-14 17:17:00,78.4,40.7,30.08,East,98,1.0,5.0,26,0.00,,,0.00,287,Wunderground v.1.15,2013-04-14 21:17:00,
2013-04-14 17:22:00,79.2,41.3,30.08,South,191,3.0,4.0,26,0.00,,,0.00,257,Wunderground v.1.15,2013-04-14 21:22:00,
2013-04-14 17:27:00,79.0,42.2,30.08,South,188,3.0,8.0,27,0.00,,,0.00,225,Wunderground v.1.15,2013-04-14 21:27:00,
2013-04-14 17:32:00,78.8,42.0,30.08,South,176,2.0,5.0,27,0.00,,,0.00,204,Wunderground v.1.15,2013-04-14 21:32:00,
2013-04-14 17:37:00,78.7,41.9,30.08,SSE,148,2.0,6.0,27,0.00,,,0.00,204,Wunderground v.1.15,2013-04-14 21:37:00,
2013-04-14 17:42:00,78.6,42.8,30.09,SSE,158,3.0,7.0,28,0.00,,,0.00,206,Wunderground v.1.15,2013-04-14 21:42:00,
2013-04-14 17:47:00,78.7,42.8,30.09,SSE,150,7.0,7.0,28,0.00,,,0.00,190,Wunderground v.1.15,2013-04-14 21:47:00,
2013-04-14 17:52:00,78.2,42.4,30.09,SSW,199,3.0,6.0,28,0.00,,,0.00,167,Wunderground v.1.15,2013-04-14 21:52:00,
2013-04-14 17:57:00,77.9,42.2,30.09,SSE,167,2.0,6.0,28,0.00,,,0.00,156,Wunderground v.1.15,2013-04-14 21:57:00,
2013-04-14 18:02:00,78.1,42.3,30.09,SSE,157,2.0,5.0,28,0.00,,,0.00,156,Wunderground v.1.15,2013-04-14 22:02:00,
2013-04-14 18:07:00,78.1,42.3,30.09,South,187,3.0,5.0,28,0.00,,,0.00,148,Wunderground v.1.15,2013-04-14 22:07:00,
2013-04-14 18:13:00,77.9,43.1,30.09,SSE,150,2.0,3.0,29,0.00,,,0.00,128,Wunderground v.1.15,2013-04-14 22:13:00,
2013-04-14 18:18:00,77.5,42.7,30.09,SE,145,2.0,7.0,29,0.00,,,0.00,118,Wunderground v.1.15,2013-04-14 22:18:00,
2013-04-14 18:23:00,77.5,43.6,30.09,SSE,167,2.0,4.0,30,0.00,,,0.00,107,Wunderground v.1.15,2013-04-14 22:23:00,
2013-04-14 18:28:00,77.2,43.4,30.09,SSE,159,2.0,7.0,30,0.00,,,0.00,93,Wunderground v.1.15,2013-04-14 22:28:00,
2013-04-14 18:33:00,76.7,43.8,30.09,SSE,166,2.0,3.0,31,0.00,,,0.00,84,Wunderground v.1.15,2013-04-14 22:33:00,
2013-04-14 18:38:00,76.4,44.4,30.09,SSE,156,1.0,4.0,32,0.00,,,0.00,79,Wunderground v.1.15,2013-04-14 22:38:00,
2013-04-14 18:43:00,76.3,44.3,30.09,SSE,147,3.0,3.0,32,0.00,,,0.00,72,Wunderground v.1.15,2013-04-14 22:43:00,
2013-04-14 18:48:00,76.1,43.3,30.09,SSE,163,3.0,6.0,31,0.00,,,0.00,63,Wunderground v.1.15,2013-04-14 22:48:00,
2013-04-14 18:53:00,75.8,43.8,30.10,SSE,152,3.0,4.0,32,0.00,,,0.00,51,Wunderground v.1.15,2013-04-14 22:53:00,
2013-04-14 18:58:00,75.5,45.2,30.09,SSE,161,1.0,4.0,34,0.00,,,0.00,44,Wunderground v.1.15,2013-04-14 22:58:00,
2013-04-14 19:03:00,75.2,44.1,30.09,SSE,168,4.0,6.0,33,0.00,,,0.00,39,Wunderground v.1.15,2013-04-14 23:03:00,
2013-04-14 19:08:00,74.9,43.8,30.09,SSE,159,2.0,6.0,33,0.00,,,0.00,33,Wunderground v.1.15,2013-04-14 23:08:00,
2013-04-14 19:13:00,74.4,44.2,30.09,SSE,159,2.0,3.0,34,0.00,,,0.00,30,Wunderground v.1.15,2013-04-14 23:13:00,
2013-04-14 19:18:00,74.3,44.1,30.09,SSE,168,3.0,5.0,34,0.00,,,0.00,23,Wunderground v.1.15,2013-04-14 23:18:00,
2013-04-14 19:23:00,74.0,44.6,30.10,SSE,168,1.0,5.0,35,0.00,,,0.00,16,Wunderground v.1.15,2013-04-14 23:23:00,
2013-04-14 19:28:00,73.8,44.4,30.10,SSE,159,3.0,5.0,35,0.00,,,0.00,12,Wunderground v.1.15,2013-04-14 23:28:00,
2013-04-14 19:33:00,73.6,45.0,30.10,SSE,153,1.0,5.0,36,0.00,,,0.00,9,Wunderground v.1.15,2013-04-14 23:33:00,
2013-04-14 19:38:00,73.4,44.8,30.10,SSE,156,1.0,5.0,36,0.00,,,0.00,5,Wunderground v.1.15,2013-04-14 23:38:00,
2013-04-14 19:43:00,73.3,44.7,30.09,SSE,150,6.0,6.0,36,0.00,,,0.00,0,Wunderground v.1.15,2013-04-14 23:43:00,
2013-04-14 19:48:00,73.2,44.6,30.10,SSE,147,2.0,6.0,36,0.00,,,0.00,0,Wunderground v.1.15,2013-04-14 23:48:00,
2013-04-14 19:54:00,72.9,45.1,30.10,South,169,2.0,5.0,37,0.00,,,0.00,0,Wunderground v.1.15,2013-04-14 23:54:00,
2013-04-14 19:59:00,72.7,44.9,30.10,SE,146,1.0,5.0,37,0.00,,,0.00,0,Wunderground v.1.15,2013-04-14 23:59:00,
2013-04-14 20:04:00,72.6,44.8,30.10,SSE,153,2.0,3.0,37,0.00,,,0.00,0,Wunderground v.1.15,2013-04-15 00:04:00,
2013-04-14 20:09:00,72.4,45.4,30.10,SSE,163,1.0,3.0,38,0.00,,,0.00,0,Wunderground v.1.15,2013-04-15 00:09:00,
2013-04-14 20:14:00,72.2,45.2,30.10,SSE,167,3.0,3.0,38,0.00,,,0.00,0,Wunderground v.1.15,2013-04-15 00:14:00,
2013-04-14 20:19:00,71.9,45.6,30.10,SSE,153,0.0,4.0,39,0.00,,,0.00,0,Wunderground v.1.15,2013-04-15 00:19:00,
2013-04-14 20:24:00,71.6,45.3,30.10,SSE,160,2.0,5.0,39,0.00,,,0.00,0,Wunderground v.1.15,2013-04-15 00:24:00,
2013-04-14 20:29:00,71.3,45.1,30.10,SSE,161,1.0,5.0,39,0.00,,,0.00,0,Wunderground v.1.15,2013-04-15 00:29:00,
2013-04-14 20:34:00,71.2,45.6,30.10,SSE,160,3.0,4.0,40,0.00,,,0.00,0,Wunderground v.1.15,2013-04-15 00:34:00,
2013-04-14 20:39:00,71.2,45.6,30.10,SSE,163,2.0,4.0,40,0.00,,,0.00,0,Wunderground v.1.15,2013-04-15 00:39:00,
2013-04-14 20:44:00,71.2,45.6,30.10,SSE,167,4.0,5.0,40,0.00,,,0.00,0,Wunderground v.1.15,2013-04-15 00:44:00,
2013-04-14 20:49:00,71.1,45.5,30.10,SSE,167,3.0,5.0,40,0.00,,,0.00,0,Wunderground v.1.15,2013-04-15 00:49:00,
2013-04-14 20:54:00,70.9,45.4,30.10,SSE,164,1.0,4.0,40,0.00,,,0.00,0,Wunderground v.1.15,2013-04-15 00:54:00,
2013-04-14 20:59:00,70.8,45.9,30.10,South,169,1.0,6.0,41,0.00,,,0.00,0,Wunderground v.1.15,2013-04-15 00:59:00,
2013-04-14 21:04:00,70.6,45.1,30.11,SSE,160,1.0,6.0,40,0.00,,,0.00,0,Wunderground v.1.15,2013-04-15 01:04:00,
2013-04-14 21:09:00,70.4,45.6,30.10,SSE,157,2.0,6.0,41,0.00,,,0.00,0,Wunderground v.1.15,2013-04-15 01:09:00,
2013-04-14 21:14:00,70.3,45.5,30.10,South,169,2.0,4.0,41,0.00,,,0.00,0,Wunderground v.1.15,2013-04-15 01:14:00,
2013-04-14 21:19:00,70.2,44.7,30.10,SSE,167,4.0,6.0,40,0.00,,,0.00,0,Wunderground v.1.15,2013-04-15 01:19:00,
2013-04-14 21:24:00,70.2,44.7,30.10,SSE,151,2.0,5.0,40,0.00,,,0.00,0,Wunderground v.1.15,2013-04-15 01:24:00,
2013-04-14 21:29:00,70.1,44.6,30.10,SSE,150,3.0,5.0,40,0.00,,,0.00,0,Wunderground v.1.15,2013-04-15 01:29:00,
2013-04-14 21:34:00,70.2,44.7,30.10,SSE,150,5.0,5.0,40,0.00,,,0.00,0,Wunderground v.1.15,2013-04-15 01:34:00,
2013-04-14 21:39:00,70.3,44.8,30.10,SSE,167,2.0,5.0,40,0.00,,,0.00,0,Wunderground v.1.15,2013-04-15 01:39:00,
2013-04-14 21:44:00,70.4,44.3,30.10,SSE,149,1.0,5.0,39,0.00,,,0.00,0,Wunderground v.1.15,2013-04-15 01:44:00,
2013-04-14 21:50:00,70.3,44.8,30.10,SSE,163,0.0,2.0,40,0.00,,,0.00,0,Wunderground v.1.15,2013-04-15 01:50:00,
2013-04-14 21:55:00,69.7,44.9,30.10,SSE,157,3.0,3.0,41,0.00,,,0.00,0,Wunderground v.1.15,2013-04-15 01:55:00,
2013-04-14 22:00:00,69.5,45.4,30.10,SSE,163,0.0,1.0,42,0.00,,,0.00,0,Wunderground v.1.15,2013-04-15 02:00:00,
2013-04-14 22:05:00,69.3,45.2,30.09,SSE,163,0.0,2.0,42,0.00,,,0.00,0,Wunderground v.1.15,2013-04-15 02:05:00,
2013-04-14 22:10:00,69.4,44.7,30.09,SSE,155,0.0,1.0,41,0.00,,,0.00,0,Wunderground v.1.15,2013-04-15 02:10:00,
2013-04-14 22:15:00,69.6,44.8,30.09,SSE,155,0.0,2.0,41,0.00,,,0.00,0,Wunderground v.1.15,2013-04-15 02:15:00,
2013-04-14 22:20:00,69.6,44.2,30.09,SSE,153,2.0,2.0,40,0.00,,,0.00,0,Wunderground v.1.15,2013-04-15 02:20:00,
2013-04-14 22:25:00,69.7,44.3,30.09,SSE,159,2.0,3.0,40,0.00,,,0.00,0,Wunderground v.1.15,2013-04-15 02:25:00,
2013-04-14 22:31:00,69.4,44.7,30.09,SSE,158,0.0,2.0,41,0.00,,,0.00,0,Wunderground v.1.15,2013-04-15 02:31:00,
2013-04-14 22:36:00,68.9,44.9,30.09,SSW,192,2.0,2.0,42,0.00,,,0.00,0,Wunderground v.1.15,2013-04-15 02:36:00,
2013-04-14 22:41:00,68.4,45.0,30.09,SSE,163,1.0,1.0,43,0.00,,,0.00,0,Wunderground v.1.15,2013-04-15 02:41:00,
2013-04-14 22:46:00,68.7,44.7,30.09,SSE,152,1.0,3.0,42,0.00,,,0.00,0,Wunderground v.1.15,2013-04-15 02:46:00,
2013-04-14 22:51:00,68.7,44.7,30.09,SSE,165,2.0,6.0,42,0.00,,,0.00,0,Wunderground v.1.15,2013-04-15 02:51:00,
2013-04-14 22:56:00,68.5,45.7,30.09,SSE,157,3.0,6.0,44,0.00,,,0.00,0,Wunderground v.1.15,2013-04-15 02:56:00,
2013-04-14 23:01:00,68.6,45.8,30.09,SSE,162,2.0,5.0,44,0.00,,,0.00,0,Wunderground v.1.15,2013-04-15 03:01:00,
2013-04-14 23:06:00,68.6,46.4,30.09,SSE,155,3.0,5.0,45,0.00,,,0.00,0,Wunderground v.1.15,2013-04-15 03:06:00,
2013-04-14 23:11:00,68.5,46.9,30.10,South,188,0.0,2.0,46,0.00,,,0.00,0,Wunderground v.1.15,2013-04-15 03:11:00,
2013-04-14 23:16:00,68.4,47.4,30.09,SSE,153,3.0,6.0,47,0.00,,,0.00,0,Wunderground v.1.15,2013-04-15 03:16:00,
2013-04-14 23:21:00,68.3,47.8,30.10,South,180,2.0,4.0,48,0.00,,,0.00,0,Wunderground v.1.15,2013-04-15 03:21:00,
2013-04-14 23:26:00,68.3,47.8,30.10,SSE,148,3.0,6.0,48,0.00,,,0.00,0,Wunderground v.1.15,2013-04-15 03:26:00,
2013-04-14 23:31:00,68.3,47.8,30.10,SSE,160,2.0,3.0,48,0.00,,,0.00,0,Wunderground v.1.15,2013-04-15 03:31:00,
2013-04-14 23:36:00,68.3,48.4,30.11,SSE,153,3.0,7.0,49,0.00,,,0.00,0,Wunderground v.1.15,2013-04-15 03:36:00,
2013-04-14 23:41:00,68.3,48.4,30.11,SE,142,3.0,6.0,49,0.00,,,0.00,0,Wunderground v.1.15,2013-04-15 03:41:00,
2013-04-14 23:46:00,68.0,48.1,30.12,SE,145,1.0,6.0,49,0.00,,,0.00,0,Wunderground v.1.15,2013-04-15 03:46:00,
2013-04-14 23:51:00,67.9,48.6,30.12,SSE,159,2.0,6.0,50,0.00,,,0.00,0,Wunderground v.1.15,2013-04-15 03:51:00,
2013-04-14 23:56:00,67.7,48.4,30.12,SSE,150,4.0,7.0,50,0.00,,,0.00,0,Wunderground v.1.15,2013-04-15 03:56:00,